Cloud_Cover
100 100 1 14 56 10 20 42 35 28 7 96 100 81 67 100 96 38 44 5 20 30 7 2 1 49 18 9 6 15 100 100 100 100 100 100 100 100 98 58 100 100 59 3 0 1 2
10 68 0 85 11 44 94 5 22 8 100 100 100 96 100 100 100 100 92 3 100 73 100 91 1 23 9 91 0 88 76 100 100 100 100 100 100 100 100 100 93 100 100 74 23 0 0
78 96 10 32 100 93 57 5 5 3 97 100 87 100 100 100 95 93 99 5 20 100 90 100 91 3 38 26 6 5 44 71 100 100 100 100 100 100 100 100 97 94 31 64 4 0 0
99 61 31 90 100 100 41 3 0 57 37 94 28 99 93 100 54 97 95 7 3 59 100 100 96 53 98 5 5 80 32 5 100 100 100 100 100 100 100 100 100 99 93 5 10 0 0
29 12 63 91 100 100 24 6 6 100 42 84 100 44 100 38 47 68 5 0 0 2 76 80 29 5 13 5 78 89 100 66 100 100 100 100 100 100 100 100 100 99 37 50 18 4 24
5 98 52 100 100 98 10 2 32 64 83 27 77 100 97 37 83 39 5 0 0 5 5 3 27 8 1 55 64 100 100 71 97 100 100 100 100 100 100 100 88 20 93 44 75 5 82
4 2 100 100 100 96 11 2 98 92 66 5 78 100 48 25 100 21 8 0 2 5 52 71 22 58 98 17 100 88 100 100 100 100 100 100 100 100 100 100 100 80 100 100 100 6 82
0 22 100 100 100 100 7 84 56 100 19 5 14 100 43 0 82 45 5 4 6 5 29 47 95 98 100 52 58 100 58 92 89 99 100 100 100 100 100 100 100 100 100 99 100 98 77
4 54 100 100 100 100 100 100 44 95 20 1 14 100 96 0 5 5 34 8 5 5 61 21 90 99 92 55 60 100 80 49 45 83 100 100 100 100 100 100 100 100 100 100 100 100 90
5 38 100 100 100 100 100 100 78 95 1 0 12 100 83 0 3 46 73 98 46 5 6 84 93 99 100 6 62 62 100 83 87 73 100 100 100 100 100 100 100 100 100 100 100 35 16
5 15 100 100 100 100 100 99 72 0 0 0 18 100 23 42 13 62 65 100 47 5 8 100 100 86 97 100 91 6 37 88 84 14 70 100 100 100 100 100 100 100 100 100 100 100 99
5 8 0 97 100 28 46 0 0 0 0 0 7 78 3 3 6 21 100 100 76 5 49 100 100 100 100 100 100 100 8 20 5 34 9 100 100 100 100 100 100 100 100 100 100 100 98
5 4 43 100 81 5 5 0 0 0 0 0 0 0 4 5 4 79 92 100 21 42 87 100 100 99 100 100 100 100 100 81 8 90 87 80 100 100 100 100 100 100 100 100 100 100 100
5 0 79 100 13 5 0 0 0 0 0 0 0 0 3 5 9 52 99 100 58 9 75 99 100 100 100 99 100 100 100 100 89 33 50 67 100 100 100 100 100 89 100 100 100 100 100
5 8 86 5 5 5 0 0 2 0 0 0 0 0 8 97 18 8 78 80 86 99 65 100 100 100 100 100 100 100 100 100 100 95 8 71 97 100 100 100 100 100 100 100 100 100 100
4 3 0 5 16 27 0 0 0 0 0 0 0 1 5 13 6 24 27 43 94 100 96 100 100 100 100 100 100 100 100 100 100 100 84 100 68 100 100 100 100 100 100 100 100 92 78
0 0 3 5 67 8 0 0 0 0 0 0 0 5 2 5 10 82 100 58 95 86 84 89 98 100 84 100 100 100 100 100 100 100 100 94 100 100 100 100 100 100 100 100 99 80 17
0 0 5 5 20 17 0 0 0 0 0 5 0 2 5 5 5 99 100 100 48 94 80 96 42 57 40 81 100 100 100 100 100 100 100 100 100 100 100 100 100 100 100 100 99 69 14
0 2 1 4 2 0 0 0 0 0 0 5 1 7 5 3 64 99 100 100 99 94 100 81 29 100 100 83 100 96 100 100 100 100 100 100 100 95 100 100 100 100 100 100 100 76 5
0 2 2 5 5 4 0 0 0 0 0 0 4 10 3 18 100 100 100 100 98 99 100 95 94 88 34 38 97 100 100 100 100 100 95 100 100 86 100 100 100 100 100 100 89 8 5
0 0 0 5 5 5 1 0 0 0 0 0 12 83 17 76 20 100 97 100 100 100 100 31 56 12 5 15 76 91 100 100 100 100 100 100 100 65 100 100 100 100 100 99 86 8 48
0 0 0 0 5 5 4 0 0 0 0 0 6 15 7 9 18 99 100 100 100 100 100 100 80 66 5 20 78 70 99 100 100 100 100 100 100 71 13 22 12 45 99 23 9 13 86
0 0 0 1 5 28 5 0 0 0 0 5 5 5 70 5 5 12 44 48 59 100 90 95 100 96 78 5 32 40 71 100 100 100 100 100 100 100 99 87 97 93 96 60 100 100 100
0 0 19 65 11 100 55 4 0 0 1 4 5 5 5 5 5 5 9 100 71 100 100 95 90 89 24 5 17 5 5 19 41 100 100 100 98 100 100 100 100 100 98 100 100 100 100
5 0 30 100 22 94 51 5 0 0 3 4 5 5 5 38 5 4 5 37 94 100 100 100 99 72 61 21 51 53 66 38 5 19 100 100 100 100 91 100 100 100 100 100 100 100 100
6 5 71 100 90 5 5 5 0 5 5 5 5 68 100 98 13 5 5 58 97 90 95 100 69 65 62 26 83 38 79 99 98 12 7 73 98 100 100 100 100 100 100 100 100 100 100
5 7 66 100 100 1 5 5 0 5 5 5 5 23 88 63 4 2 5 48 97 100 100 95 78 71 58 5 53 48 65 5 51 100 100 100 90 41 45 95 100 100 100 100 100 99 100
35 38 68 90 1 0 0 4 0 5 5 10 5 5 7 68 5 5 5 5 86 100 100 98 91 100 75 37 44 13 5 20 49 29 33 65 92 50 27 21 97 15 46 82 77 21 63
43 94 100 16 5 0 0 0 5 5 5 15 62 57 5 31 2 0 0 5 7 99 100 98 94 100 100 92 76 38 14 46 5 80 86 81 74 87 58 40 12 27 5 22 23 100 100